2021/10/26,73000,73000,73000,73000
2021/10/27,73000,73000,73000,73000
2021/10/28,73000,73000,73000,73000
2021/10/29,73900,73900,73900,73900
2021/11/01,74800,74800,74800,74800
2021/11/02,74800,74800,74800,74800
2021/11/04,74800,74800,74800,74800
2021/11/05,74800,74800,74800,74800
2021/11/08,74800,74800,74800,74800
2021/11/09,74800,74800,74800,74800
2021/11/10,74800,74800,74800,74800
2021/11/11,74800,74800,74800,74800
2021/11/12,74800,74800,74800,74800
2021/11/15,74600,74600,74600,74600
2021/11/16,74600,74600,74600,74600
2021/11/17,74000,74000,73800,73800
2021/11/18,73700,73700,73700,73700
2021/11/19,73700,73700,73700,73700
2021/11/22,73700,73700,73700,73700
2021/11/24,73700,73700,73700,73700
2021/11/25,73700,73700,73700,73700
2021/11/26,73700,73700,73700,73700
2021/11/29,70700,70700,70700,70700
2021/11/30,70700,70700,70700,70700
2021/12/01,70700,70700,70700,70700
2021/12/02,70700,70700,70700,70700
2021/12/03,70700,70700,70700,70700
2021/12/06,70700,70700,70700,70700
2021/12/07,70700,70700,70700,70700
2021/12/08,68600,68600,68600,68600
2021/12/09,68600,68600,68600,68600
2021/12/10,68600,68600,68600,68600
2021/12/13,68900,68900,68900,68900
2021/12/14,68900,68900,68900,68900
2021/12/15,68900,68900,68900,68900
2021/12/16,68900,68900,68900,68900
2021/12/17,68900,68900,68900,68900
2021/12/20,68300,68300,68300,68300
2021/12/21,68300,68300,68300,68300
2021/12/22,68300,68300,68300,68300
2021/12/23,68300,68300,68300,68300
2021/12/24,68300,68300,68300,68300
2021/12/27,68300,68300,68300,68300
2021/12/28,70000,70500,70000,70500
2021/12/29,70500,70500,70500,70500
2021/12/30,71500,71500,71500,71500
2022/01/04,71500,71500,71500,71500
2022/01/05,71500,71500,71500,71500
2022/01/06,71500,71500,71500,71500
2022/01/07,72500,72500,72500,72500
2022/01/11,72500,72500,72500,72500
2022/01/12,72500,72500,72500,72500
2022/01/13,72500,72500,72500,72500
2022/01/14,72500,72500,72500,72500
2022/01/17,74000,74000,74000,74000
2022/01/18,74000,74000,74000,74000
2022/01/19,74000,74000,74000,74000
2022/01/20,74000,74000,74000,74000
2022/01/21,74000,74000,74000,74000
2022/01/24,74000,74000,74000,74000
2022/01/25,74000,74000,74000,74000
2022/01/26,75300,75300,75300,75300
2022/01/27,75300,75300,75300,75300
2022/01/28,75300,75300,75300,75300
2022/01/31,75300,75300,75300,75300
2022/02/01,75300,75300,75300,75300
2022/02/02,75300,75300,75300,75300
2022/02/03,75300,75300,75300,75300
2022/02/04,76300,76300,76300,76300
2022/02/07,76300,76300,76300,76300
2022/02/08,76300,76300,76300,76300
2022/02/09,76300,76300,76300,76300
2022/02/10,76300,76300,76300,76300
2022/02/14,77300,77300,77300,77300
2022/02/15,77300,77300,77300,77300
2022/02/16,77300,77300,77300,77300
2022/02/17,77300,77300,77300,77300
2022/02/18,77300,77300,77300,77300
2022/02/21,77900,77900,77900,77900
2022/02/22,77900,77900,77900,77900
2022/02/24,77900,77900,77900,77900
2022/02/25,83000,83000,83000,83000
2022/02/28,83000,83000,83000,83000
2022/03/01,83000,83000,83000,83000
2022/03/02,83000,83000,83000,83000
2022/03/03,83000,83000,83000,83000
2022/03/04,83000,83000,83000,83000
2022/03/07,85000,85000,85000,85000
2022/03/08,85000,85000,85000,85000
2022/03/09,85000,85000,85000,85000
2022/03/10,85000,85000,85000,85000
2022/03/11,84740,84740,84740,84740
2022/03/14,84740,84740,84740,84740
2022/03/15,84740,84740,84740,84740
2022/03/16,81470,81470,81470,81470
2022/03/17,81740,81740,81740,81740
2022/03/18,81740,81740,81740,81740
2022/03/22,81740,81740,81740,81740
2022/03/23,81740,81740,81740,81740
2022/03/24,81740,81740,81740,81740
2022/03/25,81740,81740,81740,81740
2022/03/28,81740,81740,81740,81740
2022/03/29,81740,81740,81740,81740
2022/03/30,81740,81740,81740,81740
2022/03/31,80000,80000,80000,80000
2022/04/01,80000,80000,80000,80000
2022/04/04,80000,80000,80000,80000
2022/04/05,81000,81200,81000,81200
2022/04/06,80200,80200,80200,80200
2022/04/07,80200,80200,80200,80200
2022/04/08,80200,80200,80200,80200
2022/04/11,80200,80200,80200,80200
2022/04/12,80200,80200,80200,80200
2022/04/13,80200,80200,80200,80200
2022/04/14,80200,80200,80200,80200
2022/04/15,80200,80200,80200,80200
2022/04/18,80200,80200,80200,80200
2022/04/19,80100,80100,80100,80100
2022/04/20,79000,80000,78500,80000
2022/04/21,81000,81000,81000,81000
2022/04/22,78700,78700,77200,77200
2022/04/25,76500,76500,75800,76050
